Regional Weather Roundup
Issued by NWS

Home | Current Version | Previous Version | Text Only | Print | Product List | Glossary Off
Versions: 1 2 3 4 5 6 7 8 9 10 11 12 13 14 15 16 17 18 19 20 21 22 23 24 25 26 27 28 29 30 31 32 33 34 35 36 37 38 39 40 41 42 43 44 45 46 47 48 49 50

000
ASUS43 KDMX 280306
RWRIA

WEATHER ROUNDUP FOR IOWA
NATIONAL WEATHER SERVICE DES MOINES IA
1000 PM CDT MON MAR 27 2017

NOTE: "FAIR" INDICATES FEW OR NO CLOUDS BELOW 12,000 FEET WITH NO
SIGNIFICANT WEATHER AND/OR OBSTRUCTIONS TO VISIBILITY.

* - THESE STATIONS ARE NOT NWS STATIONS...THUS NOT UNDER NWS
QUALITY CONTROL.  THEY ALSO DO NOT REPORT WEATHER SUCH
AS PRECIPITATION OR FOG.

IAZ001>003-012>014-020>022-031>034-043>046-280400-
   NORTHWEST IOWA

CITY           SKY/WX    TMP DP  RH WIND       PRES   REMARKS
CARROLL *      CLOUDY    46  45  93 NE7       30.00R
CHEROKEE *     CLOUDY    47  40  79 NE3       30.01R
DENISON *      CLOUDY    46  39  76 NE6       30.01S
LE MARS *      CLEAR     45  39  81 E5        30.02R
ORANGE CITY *  CLEAR     41  37  87 CALM      30.00S
SHELDON *      PTCLDY    41  37  87 S5        29.99R
SPENCER        PTCLDY    44  38  79 SE6       30.00S
$$

IAZ055>058-069>071-079>083-090>094-280400-
   SOUTHWEST IOWA

CITY           SKY/WX    TMP DP  RH WIND       PRES   REMARKS
ATLANTIC *     CLOUDY    48  41  76 N8        29.99S
AUDUBON *      CLOUDY    46  41  81 NE3       30.00F
CLARINDA *     CLOUDY    48  45  87 CALM      30.02R
COUNCIL BLFS * CLOUDY    48  43  81 E6        29.99R
CRESTON *      CLOUDY    46  41  81 N9        30.01R
HARLAN  *      CLOUDY    46  43  87 NE6       30.03R
RED OAK *      CLOUDY    48  43  81 NE6       29.99S
SHENANDOAH *   CLOUDY    48  43  81 CALM      30.00R
$$

IAZ047>049-059>061-072>074-084-280400-
   CENTRAL IOWA

CITY           SKY/WX    TMP DP  RH WIND       PRES   REMARKS
ANKENY *       CLOUDY    48  41  76 N6        30.01S
BOONE *        CLOUDY    46  45  93 N6        29.99S
CHARITON *     CLOUDY    46  45  93 CALM      29.99S
DES MOINES     CLOUDY    49  40  71 N8        30.00R
NEWTON *       CLOUDY    46  43  87 N6        30.00R
PERRY *        CLOUDY    46  42  86 N5        30.01R
$$

IAZ004>006-015-016-023>025-035-036-280400-
   NORTH CENTRAL IOWA

CITY           SKY/WX    TMP DP  RH WIND       PRES   REMARKS
ALGONA *       CLEAR     41  41 100 CALM      30.01R
CLARION *      CLEAR     43  43 100 CALM      30.01R
FORT DODGE *   CLOUDY    46  39  76 NE5       30.01S
MASON CITY     MOCLDY    38  36  92 CALM      30.01R
WEBSTER CITY * CLOUDY    46  43  87 N5        29.99R
$$

IAZ007>011-017>019-026>030-037>042-050>054-066-280400-
   NORTHEAST IOWA

CITY           SKY/WX    TMP DP  RH WIND       PRES   REMARKS
CLINTON *      CLOUDY    48  46  93 N5        29.98R
DECORAH *      CLOUDY    45  43  93 N6        29.99R
MONTICELLO *   CLOUDY    48  45  87 CALM      29.98S
OELWEIN *      CLOUDY    46  45  93 NE5       30.00R
WATERLOO       CLOUDY    46  42  86 NW6       30.00R
$$

IAZ064-065-067-068-078-280400-
   EAST CENTRAL IOWA

CITY           SKY/WX    TMP DP  RH WIND       PRES   REMARKS
MUSCATINE *    CLOUDY    50  46  87 NW5       29.98S
$$

IAZ062-063-075>077-085>089-095>099-280400-
   SOUTHEAST IOWA

CITY           SKY/WX    TMP DP  RH WIND       PRES   REMARKS
FAIRFIELD *    CLOUDY    48  46  93 N7        29.98R
KEOKUK *       CLOUDY    52  48  87 N5        29.96R
CENTERVILLE *  CLOUDY    46  46 100 CALM      30.01R
WASHINGTON *   CLOUDY    50  48  93 N6        29.99R FOG
$$

ABBREVIATIONS USED IN REMARKS
   TC - TEMPERATURES IN CELSIUS
  WCI - WIND CHILL INDEX
   HX - HEAT INDEX
  VSB - VISIBILITY
$$




USA.gov is the U.S. government's official web portal to all federal, state and local government web resources and services.